Regional Weather Roundup
Issued by NWS

Home | Current Version | Previous Version | Text Only | Print | Product List | Glossary On
Versions: 1 2 3 4 5 6 7 8 9 10 11 12 13 14 15 16 17 18 19 20 21 22 23 24 25 26 27
000
ASUS45 KBOU 240807
RWRCO

WEATHER ROUNDUP FOR COLORADO
NATIONAL WEATHER SERVICE DENVER/BOULDER CO
200 AM MDT WED AUG 24 2016

NOTE: "FAIR" INDICATES FEW OR NO CLOUDS BELOW 12000 FEET WITH NO
SIGNIFICANT WEATHER AND/OR OBSTRUCTIONS TO VISIBILITY.

COZ001>005-013-030-031-240900-
...NORTHWEST COLORADO...

CITY           SKY/WX    TMP DP  RH WIND       PRES   REMARKS
CRAIG          FAIR      58  43  57 CALM      30.25F
HAYDEN         CLOUDY    55  43  62 SE9       30.27F
MEEKER         FAIR      53  46  77 E3        30.27S
MOUNT WERNER   NOT AVBL
STEAMBOAT SPGS MOCLDY    51  46  80 SE6       30.29F
WALDEN         CLOUDY    50  37  62 SW6       30.37S
$$

COZ006>008-011-240900-
...WEST CENTRAL VALLEYS...

CITY           SKY/WX    TMP DP  RH WIND       PRES   REMARKS
GRAND JUNCTION MOCLDY    65  49  56 E14       30.19F
MONTROSE       CLOUDY    57  50  77 SE12      30.27F
EAGLE          CLOUDY    57  48  72 E3        30.31S
RIFLE          FAIR      58  53  84 S3        30.24F
DELTA          NOT AVBL
NUCLA          FAIR      54  54 100 CALM      30.31S
$$

COZ017>023-064>068-240900-
...SOUTHWEST COLORADO...

CITY           SKY/WX    TMP DP  RH WIND       PRES   REMARKS
DURANGO        CLOUDY    53  45  74 CALM      30.29S
CORTEZ         CLOUDY    55  53  93 NW7       30.27R
PAGOSA SPRINGS MOCLDY    49  49  98 CALM      30.34S
TELLURIDE      LGT RAIN  45  45 100 SE8       30.43F
WOLF CREEK PAS FAIR      36  36 100 SW7       30.56S
$$

COZ009-010-012-014-032>034-037-058>063-240900-
...CENTRAL COLORADO...

CITY           SKY/WX    TMP DP  RH WIND       PRES   REMARKS
ASPEN          MOCLDY    50  47  89 VRB5      30.34F
BUENA VISTA    CLOUDY    47  44  90 NW8       30.38F
COPPER MTN     LGT RAIN  37  34  87 CALM      30.56F VSB 1/4
BERTHOUD PASS  CLOUDY    32  19  59 CALM      30.60S
COTTONWOOD PAS RAIN      45  43  93 CALM      30.46F VSB 1/2
GUNNISON       CLOUDY    50  45  81 CALM      30.38F
KREMMLING      MOCLDY    52  41  66 SW7       30.34F
LEADVILLE      LGT RAIN  39  38  96 CALM      30.45F
MONARCH PASS   FOG       36  36 100 E13       30.63F VSB<1/4
SALIDA         CLOUDY    51  47  87 CALM      30.43F
SUNLIGHT       FAIR      43  41  93 SW7       30.52F
WILKERSON PASS CLOUDY    37  36  93 S8G25     30.54F
$$

COZ069>075-240900-
...SAN LUIS VALLEY/SANGRE DE CRISTO MOUNTAINS...

CITY           SKY/WX    TMP DP  RH WIND       PRES   REMARKS
ALAMOSA        FAIR      42  42 100 S6        30.32S
LA VETA PASS   FAIR      45  39  81 NE5       30.45F
SAGUACHE       FAIR      50  45  81 N8        30.33F
$$

COZ035-036-038>040-240900-
...NORTHERN COLORADO FRONT RANGE...

CITY           SKY/WX    TMP DP  RH WIND       PRES   REMARKS
DENVER INTL AP CLOUDY    66  43  43 SW7       30.16F
DMNS CITY PARK   N/A     65  44  46 S5G10     30.14F
AURORA         MOCLDY    63  44  51 S9        30.18F
FRONT RANGE AP NOT AVBL
ERIE MUNI ARPT CLOUDY    67  41  38 SW7       30.15F
BOULDER MUN AP FAIR      70  39  32 S5        30.16F
CENTENNIAL     CLOUDY    62  44  51 SW13      30.20F
BROOMFIELD     FAIR      64  41  42 CALM      30.19F
FORT COLLINS   FAIR      72  41  33 S7        30.12R
LONGMONT       FAIR      70  40  34 E5        30.15F
$$

COZ041-046-047-076>085-087-088-240900-
...PIKES PEAK/PALMER DIVIDE AND SOUTHERN FOOTHILLS...

CITY           SKY/WX    TMP DP  RH WIND       PRES   REMARKS
COLO. SPRINGS  CLOUDY    64  40  41 SE3       30.22F
A. F. ACADEMY  MOCLDY    59  44  57 W2        30.22F
SCHRIEVER AFB  NOT AVBL
ELLICOTT       NOT AVBL
FALCON         CLOUDY    60  40  46 CALM      30.26F
FORT CARSON    NOT AVBL
LIMON          MOCLDY    63  43  48 N3        30.19F
MONUMENT HILL  FAIR      54  41  62 CALM      30.29S
TRINIDAD       FAIR      56  50  80 W12       30.22F
$$

COZ042>045-048>051-090-091-240900-
...NORTHEAST COLORADO...

CITY           SKY/WX    TMP DP  RH WIND       PRES   REMARKS
GREELEY ARPT   MOCLDY    72  41  33 CALM      30.12S
AKRON          FAIR      66  38  35 S7        30.15R
BURLINGTON     FAIR      66  42  41 W8        30.14R
WRAY           NOT AVBL
STERLING       FAIR      63  45  51 CALM      30.10S
HOLYOKE        FAIR      63  45  51 N6        30.09R
FORT MORGAN    CLOUDY    71  38  31 NW12      30.11F
$$

COZ086-089-092>099-240900-
...SOUTHEAST COLORADO...

CITY           SKY/WX    TMP DP  RH WIND       PRES   REMARKS
PUEBLO         FAIR      63  51  65 SW5       30.14F
LA JUNTA       FAIR      68  50  52 N10       30.11F
LAMAR          FAIR      63  53  70 W7        30.02F
SPRINGFIELD      N/A     65  48  54 NW18G28   30.07R
$$




USA.gov is the U.S. government's official web portal to all federal, state and local government web resources and services.